This is the latest recevied weather packets stored in our database for station/object KD9CCP. If no packets are shown the sender has not sent any weather packets the latest 10 day(s).
| Time | Temp. | Humidity | Pressure | Rain* | Wind** | Luminosity | Snow |
|---|---|---|---|---|---|---|---|
| 1778094019 | 3.89° C | 60% | 1014.8 hPa | 0 mm | - | 92 W/m² | - |
| 1778093716 | 3.89° C | 62% | 1014.8 hPa | 0 mm | - | 87 W/m² | - |
| 1778093412 | 3.89° C | 65% | 1014.8 hPa | 0 mm | - | 73 W/m² | - |
| 1778093109 | 3.89° C | 61% | 1014.8 hPa | 0 mm | - | 97 W/m² | - |
| 1778092807 | 3.89° C | 59% | 1014.7 hPa | 0 mm | - | 95 W/m² | - |
| 1778092502 | 3.89° C | 65% | 1014.8 hPa | 0 mm | - | 84 W/m² | - |
| 1778092199 | 3.89° C | 59% | 1014.8 hPa | 0 mm | - | 78 W/m² | - |
| 1778091896 | 3.89° C | 64% | 1015 hPa | 0 mm | - | 75 W/m² | - |
| 1778091593 | 3.89° C | 58% | 1014.8 hPa | 0 mm | - | 70 W/m² | - |
| 1778091292 | 3.89° C | 58% | 1014.9 hPa | 0 mm | - | 74 W/m² | - |
| 1778090988 | 3.89° C | 60% | 1014.7 hPa | 0 mm | - | 82 W/m² | - |
| 1778090684 | 3.89° C | 60% | 1014.6 hPa | 0 mm | - | 92 W/m² | - |
| 1778090381 | 3.89° C | 58% | 1014.5 hPa | 0 mm | - | 90 W/m² | - |
| 1778090078 | 3.89° C | 56% | 1014.7 hPa | 0 mm | - | 74 W/m² | - |
| 1778089774 | 3.89° C | 56% | 1014.9 hPa | 0 mm | - | 76 W/m² | - |
| 1778089473 | 3.89° C | 59% | 1015.2 hPa | 0 mm | - | 91 W/m² | - |
| 1778089169 | 4.44° C | 57% | 1014.8 hPa | 0 mm | - | 97 W/m² | - |
| 1778088866 | 3.89° C | 57% | 1014.8 hPa | 0 mm | - | 90 W/m² | - |
| 1778088563 | 3.89° C | 60% | 1014.8 hPa | 0 mm | - | 108 W/m² | - |
| 1778088260 | 3.89° C | 59% | 1014.9 hPa | 0 mm | - | 109 W/m² | - |
| 1778087957 | 3.89° C | 57% | 1014.7 hPa | 0 mm | - | 111 W/m² | - |
| 1778087654 | 3.89° C | 57% | 1014.9 hPa | 0 mm | - | 98 W/m² | - |
| 1778087353 | 3.33° C | 56% | 1015.2 hPa | 0 mm | - | 86 W/m² | - |
| 1778087048 | 3.33° C | 57% | 1015.2 hPa | 0 mm | - | 98 W/m² | - |
| 1778086747 | 3.33° C | 56% | 1015 hPa | 0 mm | - | 96 W/m² | - |
* Rain latest hour (hover to see other rain measurements)
** Current wind speed in m/s (hover to see current wind gust speed)